Time,TemperatureF,DewpointF,PressureIn,WindDirection,WindDirectionDegrees,WindSpeedMPH,WindSpeedGustMPH,Humidity,HourlyPrecipIn,Conditions,Clouds,dailyrainin,SoftwareType,DateUTC
2013-07-28 00:01:00,53.9,51.9,22.68,SE,127,2.0,21.0,93,0.00,,,0.00,Wunderground v.1.15,2013-07-28 06:01:00,
2013-07-28 00:05:00,53.8,51.5,22.68,SE,139,2.0,21.0,92,0.00,,,0.00,Wunderground v.1.15,2013-07-28 06:05:00,
2013-07-28 00:07:00,53.7,51.7,22.68,South,177,2.0,21.0,93,0.00,,,0.00,Wunderground v.1.15,2013-07-28 06:07:00,
2013-07-28 00:13:00,53.7,51.7,22.68,ESE,111,1.0,21.0,93,0.00,,,0.00,Wunderground v.1.15,2013-07-28 06:13:00,
2013-07-28 00:15:00,53.7,51.7,22.68,WNW,295,1.0,21.0,93,0.00,,,0.00,Wunderground v.1.15,2013-07-28 06:15:00,
2013-07-28 00:17:00,53.7,51.4,22.68,ENE,58,1.0,21.0,92,0.00,,,0.00,Wunderground v.1.15,2013-07-28 06:17:00,
2013-07-28 00:21:00,53.7,51.4,22.68,ENE,74,1.0,21.0,92,0.00,,,0.00,Wunderground v.1.15,2013-07-28 06:21:00,
2013-07-28 00:23:00,53.7,51.7,22.68,ENE,74,1.0,21.0,93,0.00,,,0.00,Wunderground v.1.15,2013-07-28 06:23:00,
2013-07-28 00:25:00,53.7,51.7,22.67,NE,37,1.0,21.0,93,0.00,,,0.00,Wunderground v.1.15,2013-07-28 06:25:00,
2013-07-28 00:27:00,53.7,51.7,22.68,NW,325,1.0,21.0,93,0.00,,,0.00,Wunderground v.1.15,2013-07-28 06:27:00,
2013-07-28 00:31:00,53.6,51.6,22.68,NNW,345,1.0,1.0,93,0.00,,,0.00,Wunderground v.1.15,2013-07-28 06:31:00,
2013-07-28 00:33:00,53.6,51.6,22.68,NNW,344,1.0,21.0,93,0.00,,,0.00,Wunderground v.1.15,2013-07-28 06:33:00,
2013-07-28 00:35:00,53.5,51.5,22.67,ENE,75,1.0,21.0,93,0.00,,,0.00,Wunderground v.1.15,2013-07-28 06:35:00,
2013-07-28 00:39:00,53.4,51.4,22.68,NNE,32,1.0,21.0,93,0.00,,,0.00,Wunderground v.1.15,2013-07-28 06:39:00,
2013-07-28 00:41:00,53.4,51.1,22.67,NNE,23,1.0,21.0,92,0.00,,,0.00,Wunderground v.1.15,2013-07-28 06:41:00,
2013-07-28 00:43:00,53.4,51.1,22.67,ENE,77,2.0,21.0,92,0.00,,,0.00,Wunderground v.1.15,2013-07-28 06:43:00,
2013-07-28 00:45:00,53.5,51.2,22.67,NE,46,2.0,21.0,92,0.00,,,0.00,Wunderground v.1.15,2013-07-28 06:45:00,
2013-07-28 00:47:00,53.4,51.1,22.67,North,350,2.0,21.0,92,0.00,,,0.00,Wunderground v.1.15,2013-07-28 06:47:00,
2013-07-28 00:49:00,53.5,51.2,22.67,ENE,77,2.0,21.0,92,0.00,,,0.00,Wunderground v.1.15,2013-07-28 06:49:00,
2013-07-28 00:53:00,53.5,51.2,22.67,East,82,2.0,21.0,92,0.00,,,0.00,Wunderground v.1.15,2013-07-28 06:53:00,
2013-07-28 00:55:00,53.5,50.9,22.67,NNE,29,2.0,21.0,91,0.00,,,0.00,Wunderground v.1.15,2013-07-28 06:55:00,
2013-07-28 00:57:00,53.5,50.9,22.67,ESE,105,2.0,21.0,91,0.00,,,0.00,Wunderground v.1.15,2013-07-28 06:57:00,
2013-07-28 00:59:00,53.5,50.9,22.67,ESE,122,2.0,21.0,91,0.00,,,0.00,Wunderground v.1.15,2013-07-28 06:59:00,
2013-07-28 01:01:00,53.5,50.9,22.67,ENE,57,1.0,21.0,91,0.00,,,0.00,Wunderground v.1.15,2013-07-28 07:01:00,
2013-07-28 01:03:00,53.5,50.9,22.67,ENE,58,1.0,21.0,91,0.00,,,0.00,Wunderground v.1.15,2013-07-28 07:03:00,
2013-07-28 01:07:00,53.5,50.9,22.67,ENE,77,1.0,21.0,91,0.00,,,0.00,Wunderground v.1.15,2013-07-28 07:07:00,
2013-07-28 01:11:00,53.4,50.8,22.67,NNW,345,1.0,21.0,91,0.00,,,0.00,Wunderground v.1.15,2013-07-28 07:11:00,
2013-07-28 01:17:00,53.5,50.9,22.66,WSW,243,1.0,21.0,91,0.00,,,0.00,Wunderground v.1.15,2013-07-28 07:17:00,
2013-07-28 01:19:00,53.5,50.9,22.66,WSW,240,1.0,21.0,91,0.00,,,0.00,Wunderground v.1.15,2013-07-28 07:19:00,
2013-07-28 01:23:00,53.5,51.2,22.66,WSW,240,0.0,21.0,92,0.00,,,0.00,Wunderground v.1.15,2013-07-28 07:23:00,
2013-07-28 01:25:00,53.4,51.1,22.66,WSW,240,0.0,21.0,92,0.00,,,0.00,Wunderground v.1.15,2013-07-28 07:25:00,
2013-07-28 01:27:00,53.4,51.1,22.66,WSW,240,0.0,21.0,92,0.00,,,0.00,Wunderground v.1.15,2013-07-28 07:27:00,
2013-07-28 01:31:00,53.3,51.0,22.66,West,259,0.0,21.0,92,0.00,,,0.00,Wunderground v.1.15,2013-07-28 07:31:00,
2013-07-28 01:33:00,53.3,51.0,22.66,West,259,0.0,21.0,92,0.00,,,0.00,Wunderground v.1.15,2013-07-28 07:33:00,
2013-07-28 01:35:00,53.3,51.3,22.66,West,259,0.0,21.0,93,0.00,,,0.00,Wunderground v.1.15,2013-07-28 07:35:00,
2013-07-28 01:37:00,53.2,50.9,22.66,West,259,0.0,21.0,92,0.00,,,0.00,Wunderground v.1.15,2013-07-28 07:37:00,
2013-07-28 01:41:00,53.2,51.2,22.66,West,259,0.0,21.0,93,0.00,,,0.00,Wunderground v.1.15,2013-07-28 07:41:00,
2013-07-28 01:43:00,53.1,51.1,22.66,West,259,0.0,21.0,93,0.00,,,0.00,Wunderground v.1.15,2013-07-28 07:43:00,
2013-07-28 01:45:00,53.1,51.1,22.66,West,259,0.0,21.0,93,0.00,,,0.00,Wunderground v.1.15,2013-07-28 07:45:00,
2013-07-28 01:47:00,53.1,51.1,22.66,West,259,0.0,21.0,93,0.00,,,0.00,Wunderground v.1.15,2013-07-28 07:47:00,
2013-07-28 01:49:00,53.0,51.0,22.65,West,259,0.0,21.0,93,0.00,,,0.00,Wunderground v.1.15,2013-07-28 07:49:00,
2013-07-28 01:53:00,53.0,51.0,22.65,West,259,0.0,21.0,93,0.00,,,0.00,Wunderground v.1.15,2013-07-28 07:53:00,
2013-07-28 01:55:00,53.0,51.0,22.65,West,259,0.0,21.0,93,0.00,,,0.00,Wunderground v.1.15,2013-07-28 07:55:00,
2013-07-28 01:57:00,53.0,51.0,22.65,West,259,0.0,21.0,93,0.00,,,0.00,Wunderground v.1.15,2013-07-28 07:57:00,
2013-07-28 01:59:00,53.0,51.3,22.65,ESE,122,0.0,21.0,94,0.00,,,0.00,Wunderground v.1.15,2013-07-28 07:59:00,
2013-07-28 02:03:00,53.0,51.3,22.65,ESE,123,0.0,21.0,94,0.00,,,0.00,Wunderground v.1.15,2013-07-28 08:03:00,
2013-07-28 02:05:00,53.0,51.3,22.65,ESE,122,0.0,21.0,94,0.00,,,0.00,Wunderground v.1.15,2013-07-28 08:05:00,
2013-07-28 02:07:00,53.0,51.3,22.65,ESE,122,0.0,21.0,94,0.00,,,0.00,Wunderground v.1.15,2013-07-28 08:07:00,
2013-07-28 02:09:00,53.1,51.4,22.65,ESE,122,0.0,21.0,94,0.00,,,0.00,Wunderground v.1.15,2013-07-28 08:09:00,
2013-07-28 02:11:00,53.1,51.4,22.65,ESE,104,0.0,21.0,94,0.00,,,0.00,Wunderground v.1.15,2013-07-28 08:11:00,
2013-07-28 02:13:00,53.0,51.3,22.65,ESE,105,0.0,21.0,94,0.00,,,0.00,Wunderground v.1.15,2013-07-28 08:13:00,
2013-07-28 02:15:00,53.0,51.3,22.65,ESE,103,0.0,21.0,94,0.00,,,0.00,Wunderground v.1.15,2013-07-28 08:15:00,
2013-07-28 02:23:00,53.0,51.3,22.64,ENE,64,0.0,21.0,94,0.00,,,0.00,Wunderground v.1.15,2013-07-28 08:23:00,
2013-07-28 02:25:00,53.0,51.3,22.64,ENE,64,0.0,21.0,94,0.00,,,0.00,Wunderground v.1.15,2013-07-28 08:25:00,
2013-07-28 02:27:00,53.0,51.3,22.64,ENE,64,0.0,21.0,94,0.00,,,0.00,Wunderground v.1.15,2013-07-28 08:27:00,
2013-07-28 02:29:00,53.0,51.3,22.64,ENE,63,0.0,21.0,94,0.00,,,0.00,Wunderground v.1.15,2013-07-28 08:29:00,
2013-07-28 02:31:00,53.0,51.3,22.64,NE,56,0.0,21.0,94,0.00,,,0.00,Wunderground v.1.15,2013-07-28 08:31:00,
2013-07-28 02:35:00,52.9,51.2,22.64,NE,54,0.0,21.0,94,0.00,,,0.00,Wunderground v.1.15,2013-07-28 08:35:00,
2013-07-28 02:37:00,52.9,51.2,22.63,NE,56,0.0,21.0,94,0.00,,,0.00,Wunderground v.1.15,2013-07-28 08:37:00,
2013-07-28 02:41:00,52.9,51.2,22.63,NE,56,0.0,21.0,94,0.00,,,0.00,Wunderground v.1.15,2013-07-28 08:41:00,
2013-07-28 02:43:00,52.9,51.2,22.63,NE,56,0.0,21.0,94,0.00,,,0.00,Wunderground v.1.15,2013-07-28 08:43:00,
2013-07-28 02:47:00,53.0,51.3,22.63,NE,55,0.0,21.0,94,0.00,,,0.00,Wunderground v.1.15,2013-07-28 08:47:00,
2013-07-28 02:53:00,53.0,51.3,22.63,NE,56,0.0,21.0,94,0.00,,,0.00,Wunderground v.1.15,2013-07-28 08:53:00,
2013-07-28 02:55:00,53.0,51.3,22.63,NE,56,0.0,21.0,94,0.00,,,0.00,Wunderground v.1.15,2013-07-28 08:55:00,
2013-07-28 02:59:00,53.0,51.3,22.62,NE,56,0.0,21.0,94,0.00,,,0.00,Wunderground v.1.15,2013-07-28 08:59:00,
2013-07-28 03:01:00,53.0,51.3,22.62,NE,56,0.0,21.0,94,0.00,,,0.00,Wunderground v.1.15,2013-07-28 09:01:00,
2013-07-28 03:03:00,53.0,51.3,22.62,NE,56,0.0,21.0,94,0.00,,,0.00,Wunderground v.1.15,2013-07-28 09:03:00,
2013-07-28 03:05:00,52.9,51.2,22.62,NE,56,0.0,21.0,94,0.00,,,0.00,Wunderground v.1.15,2013-07-28 09:05:00,
2013-07-28 03:07:00,52.9,51.2,22.62,NE,56,0.0,21.0,94,0.00,,,0.00,Wunderground v.1.15,2013-07-28 09:07:00,
2013-07-28 03:11:00,52.8,51.1,22.62,NE,56,0.0,21.0,94,0.00,,,0.00,Wunderground v.1.15,2013-07-28 09:11:00,
2013-07-28 03:15:00,52.8,51.1,22.62,NE,55,0.0,21.0,94,0.00,,,0.00,Wunderground v.1.15,2013-07-28 09:15:00,
2013-07-28 03:17:00,52.8,51.1,22.62,NE,56,0.0,21.0,94,0.00,,,0.00,Wunderground v.1.15,2013-07-28 09:17:00,
2013-07-28 03:21:00,52.8,51.4,22.62,NE,56,0.0,21.0,95,0.00,,,0.00,Wunderground v.1.15,2013-07-28 09:21:00,
2013-07-28 03:23:00,52.8,51.4,22.61,NE,56,0.0,21.0,95,0.00,,,0.00,Wunderground v.1.15,2013-07-28 09:23:00,
2013-07-28 03:25:00,52.7,51.0,22.61,NE,56,0.0,21.0,94,0.00,,,0.00,Wunderground v.1.15,2013-07-28 09:25:00,
2013-07-28 03:33:00,52.6,51.2,22.61,NE,56,0.0,21.0,95,0.00,,,0.00,Wunderground v.1.15,2013-07-28 09:33:00,
2013-07-28 03:35:00,52.5,50.8,22.61,NE,56,0.0,21.0,94,0.00,,,0.00,Wunderground v.1.15,2013-07-28 09:35:00,
2013-07-28 03:41:00,52.2,50.5,22.61,NE,56,0.0,21.0,94,0.00,,,0.00,Wunderground v.1.15,2013-07-28 09:41:00,
2013-07-28 03:43:00,52.2,50.5,22.61,NE,56,0.0,21.0,94,0.00,,,0.00,Wunderground v.1.15,2013-07-28 09:43:00,
2013-07-28 03:47:00,52.0,50.6,22.60,NE,56,0.0,21.0,95,0.00,,,0.00,Wunderground v.1.15,2013-07-28 09:47:00,
2013-07-28 03:49:00,51.9,50.5,22.61,NE,55,0.0,21.0,95,0.00,,,0.00,Wunderground v.1.15,2013-07-28 09:49:00,
2013-07-28 03:53:00,51.8,50.4,22.61,NE,56,0.0,21.0,95,0.00,,,0.00,Wunderground v.1.15,2013-07-28 09:53:00,
2013-07-28 03:59:00,51.6,50.2,22.61,NE,56,0.0,21.0,95,0.00,,,0.00,Wunderground v.1.15,2013-07-28 09:59:00,
2013-07-28 04:01:00,51.6,50.2,22.61,ENE,78,0.0,21.0,95,0.00,,,0.00,Wunderground v.1.15,2013-07-28 10:01:00,
2013-07-28 04:03:00,51.6,50.2,22.61,ENE,78,0.0,21.0,95,0.00,,,0.00,Wunderground v.1.15,2013-07-28 10:03:00,
2013-07-28 04:05:00,51.5,50.1,22.61,ENE,78,0.0,21.0,95,0.00,,,0.00,Wunderground v.1.15,2013-07-28 10:05:00,
2013-07-28 04:07:00,51.4,50.0,22.61,ENE,78,0.0,21.0,95,0.00,,,0.00,Wunderground v.1.15,2013-07-28 10:07:00,
2013-07-28 04:11:00,51.3,49.9,22.61,ENE,78,0.0,21.0,95,0.00,,,0.00,Wunderground v.1.15,2013-07-28 10:11:00,
2013-07-28 04:13:00,51.2,49.8,22.61,ENE,78,0.0,21.0,95,0.00,,,0.00,Wunderground v.1.15,2013-07-28 10:13:00,
2013-07-28 04:15:00,51.2,49.8,22.61,ENE,78,0.0,21.0,95,0.00,,,0.00,Wunderground v.1.15,2013-07-28 10:15:00,
2013-07-28 04:17:00,51.2,49.8,22.61,ENE,77,0.0,21.0,95,0.00,,,0.00,Wunderground v.1.15,2013-07-28 10:17:00,
2013-07-28 04:19:00,51.2,49.8,22.61,ENE,77,0.0,21.0,95,0.00,,,0.00,Wunderground v.1.15,2013-07-28 10:19:00,
2013-07-28 04:23:00,51.1,49.7,22.61,ENE,78,0.0,21.0,95,0.00,,,0.00,Wunderground v.1.15,2013-07-28 10:23:00,
2013-07-28 04:25:00,51.1,49.7,22.61,ENE,78,0.0,21.0,95,0.00,,,0.00,Wunderground v.1.15,2013-07-28 10:25:00,
2013-07-28 04:27:00,51.1,49.7,22.61,ENE,78,0.0,21.0,95,0.00,,,0.00,Wunderground v.1.15,2013-07-28 10:27:00,
2013-07-28 04:33:00,51.0,49.6,22.61,ENE,78,0.0,21.0,95,0.00,,,0.00,Wunderground v.1.15,2013-07-28 10:33:00,
2013-07-28 04:39:00,51.1,50.0,22.61,ENE,77,0.0,21.0,96,0.00,,,0.00,Wunderground v.1.15,2013-07-28 10:39:00,
2013-07-28 04:43:00,51.2,50.1,22.61,ENE,77,0.0,21.0,96,0.00,,,0.00,Wunderground v.1.15,2013-07-28 10:43:00,
2013-07-28 04:47:00,51.3,50.2,22.61,ENE,78,0.0,21.0,96,0.00,,,0.00,Wunderground v.1.15,2013-07-28 10:47:00,
2013-07-28 04:49:00,51.4,50.3,22.61,ENE,77,0.0,21.0,96,0.00,,,0.00,Wunderground v.1.15,2013-07-28 10:49:00,
2013-07-28 04:51:00,51.4,50.3,22.61,ENE,78,0.0,21.0,96,0.00,,,0.00,Wunderground v.1.15,2013-07-28 10:51:00,
2013-07-28 04:53:00,51.4,50.3,22.61,ENE,78,0.0,21.0,96,0.00,,,0.00,Wunderground v.1.15,2013-07-28 10:53:00,
2013-07-28 04:55:00,51.5,50.4,22.61,ENE,77,0.0,21.0,96,0.00,,,0.00,Wunderground v.1.15,2013-07-28 10:55:00,
2013-07-28 04:57:00,51.5,50.4,22.61,ENE,78,0.0,21.0,96,0.00,,,0.00,Wunderground v.1.15,2013-07-28 10:57:00,
2013-07-28 04:59:00,51.5,50.4,22.61,ENE,78,0.0,21.0,96,0.00,,,0.00,Wunderground v.1.15,2013-07-28 10:59:00,
2013-07-28 05:01:00,51.6,50.5,22.61,ENE,78,0.0,21.0,96,0.00,,,0.00,Wunderground v.1.15,2013-07-28 11:01:00,
2013-07-28 05:05:00,51.6,50.5,22.61,ENE,77,0.0,21.0,96,0.00,,,0.00,Wunderground v.1.15,2013-07-28 11:05:00,
2013-07-28 05:07:00,51.6,50.5,22.61,ENE,78,0.0,21.0,96,0.00,,,0.00,Wunderground v.1.15,2013-07-28 11:07:00,
2013-07-28 05:11:00,51.6,50.5,22.61,ENE,77,0.0,21.0,96,0.00,,,0.00,Wunderground v.1.15,2013-07-28 11:11:00,
2013-07-28 05:13:00,51.6,50.5,22.61,ENE,78,0.0,21.0,96,0.00,,,0.00,Wunderground v.1.15,2013-07-28 11:13:00,
2013-07-28 05:15:00,51.6,50.5,22.61,ENE,78,0.0,21.0,96,0.00,,,0.00,Wunderground v.1.15,2013-07-28 11:15:00,
2013-07-28 05:17:00,51.5,50.4,22.61,ENE,78,0.0,21.0,96,0.00,,,0.00,Wunderground v.1.15,2013-07-28 11:17:00,
2013-07-28 05:23:00,51.4,50.3,22.61,ENE,77,0.0,21.0,96,0.00,,,0.00,Wunderground v.1.15,2013-07-28 11:23:00,
2013-07-28 05:25:00,51.3,50.2,22.61,ENE,78,0.0,21.0,96,0.00,,,0.00,Wunderground v.1.15,2013-07-28 11:25:00,
2013-07-28 05:29:00,51.2,50.1,22.61,ENE,78,0.0,21.0,96,0.00,,,0.00,Wunderground v.1.15,2013-07-28 11:29:00,
2013-07-28 05:31:00,51.3,50.2,22.61,ENE,77,0.0,21.0,96,0.00,,,0.00,Wunderground v.1.15,2013-07-28 11:31:00,
2013-07-28 05:33:00,51.3,50.2,22.61,ENE,69,0.0,21.0,96,0.00,,,0.00,Wunderground v.1.15,2013-07-28 11:33:00,
2013-07-28 05:35:00,51.3,50.2,22.61,ENE,70,0.0,21.0,96,0.00,,,0.00,Wunderground v.1.15,2013-07-28 11:35:00,
2013-07-28 05:39:00,51.3,50.2,22.60,ENE,70,0.0,21.0,96,0.00,,,0.00,Wunderground v.1.15,2013-07-28 11:39:00,
2013-07-28 05:41:00,51.3,50.2,22.60,ENE,70,0.0,21.0,96,0.00,,,0.00,Wunderground v.1.15,2013-07-28 11:41:00,
2013-07-28 05:43:00,51.3,50.2,22.60,ENE,70,0.0,21.0,96,0.00,,,0.00,Wunderground v.1.15,2013-07-28 11:43:00,
2013-07-28 05:45:00,51.3,50.2,22.60,ENE,70,0.0,21.0,96,0.00,,,0.00,Wunderground v.1.15,2013-07-28 11:45:00,
2013-07-28 05:47:00,51.3,50.2,22.61,ENE,70,0.0,21.0,96,0.00,,,0.00,Wunderground v.1.15,2013-07-28 11:47:00,
2013-07-28 05:51:00,51.3,50.2,22.61,ENE,70,0.0,21.0,96,0.00,,,0.00,Wunderground v.1.15,2013-07-28 11:51:00,
2013-07-28 05:53:00,51.4,50.3,22.61,ENE,70,0.0,21.0,96,0.00,,,0.00,Wunderground v.1.15,2013-07-28 11:53:00,
2013-07-28 05:55:00,51.4,50.3,22.61,ENE,70,0.0,21.0,96,0.00,,,0.00,Wunderground v.1.15,2013-07-28 11:55:00,
2013-07-28 05:57:00,51.4,50.3,22.60,ENE,70,0.0,21.0,96,0.00,,,0.00,Wunderground v.1.15,2013-07-28 11:57:00,
2013-07-28 05:59:00,51.5,50.4,22.61,ENE,70,0.0,21.0,96,0.00,,,0.00,Wunderground v.1.15,2013-07-28 11:59:00,
2013-07-28 06:01:00,51.5,50.4,22.61,East,81,0.0,21.0,96,0.00,,,0.00,Wunderground v.1.15,2013-07-28 12:01:00,
2013-07-28 06:05:00,51.6,50.5,22.61,SSW,211,0.0,21.0,96,0.00,,,0.00,Wunderground v.1.15,2013-07-28 12:05:00,
2013-07-28 06:07:00,51.6,50.5,22.61,SSW,211,0.0,21.0,96,0.00,,,0.00,Wunderground v.1.15,2013-07-28 12:07:00,
2013-07-28 06:11:00,51.7,50.6,22.61,SSW,211,0.0,21.0,96,0.00,,,0.00,Wunderground v.1.15,2013-07-28 12:11:00,
2013-07-28 06:13:00,51.7,50.6,22.61,SSW,211,0.0,21.0,96,0.00,,,0.00,Wunderground v.1.15,2013-07-28 12:13:00,
2013-07-28 06:17:00,51.8,50.7,22.61,SSW,210,0.0,21.0,96,0.00,,,0.00,Wunderground v.1.15,2013-07-28 12:17:00,
2013-07-28 06:21:00,51.7,50.6,22.61,ESE,112,0.0,21.0,96,0.00,,,0.00,Wunderground v.1.15,2013-07-28 12:21:00,
2013-07-28 06:23:00,51.7,50.6,22.61,ESE,112,0.0,21.0,96,0.00,,,0.00,Wunderground v.1.15,2013-07-28 12:23:00,
2013-07-28 06:25:00,51.6,50.5,22.61,ESE,112,0.0,21.0,96,0.00,,,0.00,Wunderground v.1.15,2013-07-28 12:25:00,
2013-07-28 06:27:00,51.6,50.5,22.61,ESE,112,0.0,21.0,96,0.00,,,0.00,Wunderground v.1.15,2013-07-28 12:27:00,
2013-07-28 06:29:00,51.6,50.5,22.61,ESE,111,0.0,21.0,96,0.00,,,0.00,Wunderground v.1.15,2013-07-28 12:29:00,
2013-07-28 06:31:00,51.6,50.5,22.61,ESE,112,0.0,21.0,96,0.00,,,0.00,Wunderground v.1.15,2013-07-28 12:31:00,
2013-07-28 06:33:00,51.6,50.5,22.61,ESE,112,0.0,21.0,96,0.00,,,0.00,Wunderground v.1.15,2013-07-28 12:33:00,
2013-07-28 06:35:00,51.7,50.6,22.61,ESE,111,0.0,21.0,96,0.00,,,0.00,Wunderground v.1.15,2013-07-28 12:35:00,
2013-07-28 06:37:00,51.7,50.6,22.61,ESE,112,0.0,21.0,96,0.00,,,0.00,Wunderground v.1.15,2013-07-28 12:37:00,
2013-07-28 06:39:00,51.8,50.7,22.61,ESE,112,0.0,21.0,96,0.00,,,0.00,Wunderground v.1.15,2013-07-28 12:39:00,
2013-07-28 06:43:00,51.8,50.7,22.61,ESE,112,0.0,21.0,96,0.00,,,0.00,Wunderground v.1.15,2013-07-28 12:43:00,
2013-07-28 06:45:00,51.9,50.8,22.61,ESE,112,0.0,21.0,96,0.00,,,0.00,Wunderground v.1.15,2013-07-28 12:45:00,
2013-07-28 06:47:00,52.0,50.9,22.61,ESE,111,0.0,21.0,96,0.00,,,0.00,Wunderground v.1.15,2013-07-28 12:47:00,
2013-07-28 06:49:00,52.0,50.9,22.61,ESE,112,0.0,21.0,96,0.00,,,0.00,Wunderground v.1.15,2013-07-28 12:49:00,
2013-07-28 06:51:00,52.1,51.0,22.61,ESE,112,0.0,21.0,96,0.00,,,0.00,Wunderground v.1.15,2013-07-28 12:51:00,
2013-07-28 06:53:00,52.2,51.1,22.61,ESE,112,0.0,21.0,96,0.00,,,0.00,Wunderground v.1.15,2013-07-28 12:53:00,
2013-07-28 06:57:00,52.3,51.2,22.61,ESE,112,0.0,21.0,96,0.00,,,0.00,Wunderground v.1.15,2013-07-28 12:57:00,
2013-07-28 07:03:00,52.5,51.4,22.61,ESE,110,0.0,21.0,96,0.00,,,0.00,Wunderground v.1.15,2013-07-28 13:03:00,
2013-07-28 07:05:00,52.6,51.5,22.61,ESE,111,0.0,21.0,96,0.00,,,0.00,Wunderground v.1.15,2013-07-28 13:05:00,
2013-07-28 07:09:00,52.7,51.6,22.61,ESE,110,0.0,21.0,96,0.00,,,0.00,Wunderground v.1.15,2013-07-28 13:09:00,
2013-07-28 07:13:00,52.7,51.6,22.61,ESE,112,0.0,21.0,96,0.00,,,0.00,Wunderground v.1.15,2013-07-28 13:13:00,
2013-07-28 07:15:00,52.7,51.6,22.61,SE,146,0.0,21.0,96,0.00,,,0.00,Wunderground v.1.15,2013-07-28 13:15:00,
2013-07-28 07:19:00,52.8,51.7,22.61,SE,146,0.0,21.0,96,0.00,,,0.00,Wunderground v.1.15,2013-07-28 13:19:00,
2013-07-28 07:21:00,52.8,51.7,22.61,SE,146,0.0,21.0,96,0.00,,,0.00,Wunderground v.1.15,2013-07-28 13:21:00,
2013-07-28 07:23:00,52.8,51.7,22.61,SE,146,0.0,21.0,96,0.00,,,0.00,Wunderground v.1.15,2013-07-28 13:23:00,
2013-07-28 07:25:00,52.9,51.5,22.61,SE,146,0.0,21.0,95,0.00,,,0.00,Wunderground v.1.15,2013-07-28 13:25:00,
2013-07-28 07:29:00,53.0,51.6,22.61,SE,146,0.0,21.0,95,0.00,,,0.00,Wunderground v.1.15,2013-07-28 13:29:00,
2013-07-28 07:33:00,53.3,52.2,22.61,SE,146,0.0,21.0,96,0.00,,,0.00,Wunderground v.1.15,2013-07-28 13:33:00,
2013-07-28 07:35:00,53.4,52.3,22.61,SE,146,0.0,21.0,96,0.00,,,0.00,Wunderground v.1.15,2013-07-28 13:35:00,
2013-07-28 07:37:00,53.5,52.1,22.61,SSE,147,0.0,21.0,95,0.00,,,0.00,Wunderground v.1.15,2013-07-28 13:37:00,
2013-07-28 07:39:00,53.5,52.1,22.61,ESE,120,0.0,21.0,95,0.00,,,0.00,Wunderground v.1.15,2013-07-28 13:39:00,
2013-07-28 07:45:00,53.8,52.1,22.61,South,174,0.0,21.0,94,0.00,,,0.00,Wunderground v.1.15,2013-07-28 13:45:00,
2013-07-28 07:47:00,53.8,52.1,22.61,South,174,0.0,21.0,94,0.00,,,0.00,Wunderground v.1.15,2013-07-28 13:47:00,
2013-07-28 07:49:00,53.9,52.2,22.61,ENE,67,0.0,21.0,94,0.00,,,0.00,Wunderground v.1.15,2013-07-28 13:49:00,
2013-07-28 07:51:00,54.0,52.0,22.61,ENE,63,0.0,21.0,93,0.00,,,0.00,Wunderground v.1.15,2013-07-28 13:51:00,
2013-07-28 07:55:00,54.5,52.8,22.60,East,89,1.0,21.0,94,0.00,,,0.00,Wunderground v.1.15,2013-07-28 13:55:00,
2013-07-28 07:57:00,54.7,53.0,22.60,NE,49,1.0,21.0,94,0.00,,,0.00,Wunderground v.1.15,2013-07-28 13:57:00,
2013-07-28 08:03:00,54.9,52.0,22.60,NNW,340,1.0,21.0,90,0.00,,,0.00,Wunderground v.1.15,2013-07-28 14:03:00,
2013-07-28 08:05:00,55.0,52.7,22.60,ENE,60,1.0,21.0,92,0.00,,,0.00,Wunderground v.1.15,2013-07-28 14:05:00,
2013-07-28 08:07:00,55.2,52.6,22.60,NNW,345,1.0,21.0,91,0.00,,,0.00,Wunderground v.1.15,2013-07-28 14:07:00,
2013-07-28 08:09:00,55.4,52.8,22.60,North,8,2.0,21.0,91,0.00,,,0.00,Wunderground v.1.15,2013-07-28 14:09:00,
2013-07-28 08:11:00,55.7,53.1,22.60,SW,221,1.0,21.0,91,0.00,,,0.00,Wunderground v.1.15,2013-07-28 14:11:00,
2013-07-28 08:15:00,56.1,53.2,22.60,East,96,1.0,21.0,90,0.00,,,0.00,Wunderground v.1.15,2013-07-28 14:15:00,
2013-07-28 08:17:00,56.2,53.6,22.60,East,96,1.0,21.0,91,0.00,,,0.00,Wunderground v.1.15,2013-07-28 14:17:00,
2013-07-28 08:19:00,56.4,53.8,22.60,ESE,115,1.0,21.0,91,0.00,,,0.00,Wunderground v.1.15,2013-07-28 14:19:00,
2013-07-28 08:21:00,56.5,53.6,22.60,SSE,153,1.0,21.0,90,0.00,,,0.00,Wunderground v.1.15,2013-07-28 14:21:00,
2013-07-28 08:23:00,56.6,53.4,22.61,South,169,1.0,21.0,89,0.00,,,0.00,Wunderground v.1.15,2013-07-28 14:23:00,
2013-07-28 08:25:00,56.6,53.1,22.61,SE,145,1.0,21.0,88,0.00,,,0.00,Wunderground v.1.15,2013-07-28 14:25:00,
2013-07-28 08:27:00,56.7,53.2,22.61,SE,136,1.0,21.0,88,0.00,,,0.00,Wunderground v.1.15,2013-07-28 14:27:00,
2013-07-28 08:29:00,56.7,53.5,22.61,SE,134,1.0,21.0,89,0.00,,,0.00,Wunderground v.1.15,2013-07-28 14:29:00,
2013-07-28 08:33:00,56.9,54.0,22.61,ENE,68,1.0,21.0,90,0.00,,,0.00,Wunderground v.1.15,2013-07-28 14:33:00,
2013-07-28 08:35:00,56.8,53.6,22.61,NE,43,2.0,21.0,89,0.00,,,0.00,Wunderground v.1.15,2013-07-28 14:35:00,
2013-07-28 08:37:00,56.8,53.9,22.60,NNE,15,1.0,21.0,90,0.00,,,0.00,Wunderground v.1.15,2013-07-28 14:37:00,
2013-07-28 08:39:00,56.8,53.9,22.61,ENE,57,1.0,21.0,90,0.00,,,0.00,Wunderground v.1.15,2013-07-28 14:39:00,
2013-07-28 08:43:00,56.6,53.4,22.61,North,8,2.0,21.0,89,0.00,,,0.00,Wunderground v.1.15,2013-07-28 14:43:00,
2013-07-28 08:47:00,56.5,53.3,22.60,East,86,2.0,21.0,89,0.00,,,0.00,Wunderground v.1.15,2013-07-28 14:47:00,
2013-07-28 08:49:00,56.6,53.7,22.61,NNE,12,2.0,21.0,90,0.00,,,0.00,Wunderground v.1.15,2013-07-28 14:49:00,
2013-07-28 08:51:00,56.7,53.5,22.61,NE,51,1.0,21.0,89,0.00,,,0.00,Wunderground v.1.15,2013-07-28 14:51:00,
2013-07-28 08:55:00,56.8,53.6,22.61,East,81,2.0,21.0,89,0.00,,,0.00,Wunderground v.1.15,2013-07-28 14:55:00,
2013-07-28 08:57:00,56.8,53.3,22.61,East,79,2.0,21.0,88,0.00,,,0.00,Wunderground v.1.15,2013-07-28 14:57:00,
2013-07-28 09:01:00,56.9,53.4,22.61,NNE,26,3.0,3.0,88,0.00,,,0.00,Wunderground v.1.15,2013-07-28 15:01:00,
2013-07-28 09:03:00,57.0,53.5,22.61,NW,304,2.0,21.0,88,0.00,,,0.00,Wunderground v.1.15,2013-07-28 15:03:00,
2013-07-28 09:05:00,57.1,53.6,22.61,North,352,2.0,21.0,88,0.00,,,0.00,Wunderground v.1.15,2013-07-28 15:05:00,
2013-07-28 09:09:00,57.3,53.5,22.61,NE,44,1.0,21.0,87,0.00,,,0.00,Wunderground v.1.15,2013-07-28 15:09:00,
2013-07-28 09:11:00,57.3,53.5,22.61,ENE,63,1.0,21.0,87,0.00,,,0.00,Wunderground v.1.15,2013-07-28 15:11:00,
2013-07-28 09:15:00,57.3,53.1,22.61,NNE,27,1.0,21.0,86,0.00,,,0.00,Wunderground v.1.15,2013-07-28 15:15:00,
2013-07-28 09:17:00,57.4,53.2,22.61,NNE,18,1.0,21.0,86,0.00,,,0.00,Wunderground v.1.15,2013-07-28 15:17:00,
2013-07-28 09:19:00,57.3,53.1,22.61,NNW,335,1.0,21.0,86,0.00,,,0.00,Wunderground v.1.15,2013-07-28 15:19:00,
2013-07-28 09:23:00,57.3,53.1,22.61,NNE,32,1.0,21.0,86,0.00,,,0.00,Wunderground v.1.15,2013-07-28 15:23:00,
2013-07-28 09:27:00,57.3,53.5,22.61,ENE,71,2.0,21.0,87,0.00,,,0.00,Wunderground v.1.15,2013-07-28 15:27:00,
2013-07-28 09:29:00,57.2,53.0,22.61,ENE,64,2.0,21.0,86,0.00,,,0.00,Wunderground v.1.15,2013-07-28 15:29:00,
2013-07-28 09:33:00,57.1,53.0,22.61,NE,43,3.0,21.0,86,0.00,,,0.00,Wunderground v.1.15,2013-07-28 15:33:00,
2013-07-28 09:35:00,57.0,53.2,22.61,NE,56,3.0,21.0,87,0.00,,,0.00,Wunderground v.1.15,2013-07-28 15:35:00,
2013-07-28 09:39:00,57.0,53.2,22.61,ENE,67,2.0,21.0,87,0.00,,,0.00,Wunderground v.1.15,2013-07-28 15:39:00,
2013-07-28 09:41:00,57.0,53.2,22.61,NNW,332,2.0,21.0,87,0.00,,,0.00,Wunderground v.1.15,2013-07-28 15:41:00,
2013-07-28 09:47:00,57.0,53.5,22.61,NNW,329,2.0,21.0,88,0.00,,,0.00,Wunderground v.1.15,2013-07-28 15:47:00,
2013-07-28 09:49:00,57.0,53.5,22.61,NNW,341,3.0,21.0,88,0.00,,,0.00,Wunderground v.1.15,2013-07-28 15:49:00,
2013-07-28 09:55:00,57.0,53.5,22.61,NW,323,3.0,21.0,88,0.00,,,0.00,Wunderground v.1.15,2013-07-28 15:55:00,
2013-07-28 09:57:00,56.9,53.4,22.61,NNW,339,3.0,21.0,88,0.00,,,0.00,Wunderground v.1.15,2013-07-28 15:57:00,
2013-07-28 09:59:00,57.0,53.8,22.61,ENE,63,3.0,21.0,89,0.00,,,0.00,Wunderground v.1.15,2013-07-28 15:59:00,
2013-07-28 10:03:00,57.0,53.5,22.61,NE,41,3.0,21.0,88,0.00,,,0.00,Wunderground v.1.15,2013-07-28 16:03:00,
2013-07-28 10:05:00,57.0,53.5,22.61,NNW,343,3.0,21.0,88,0.00,,,0.00,Wunderground v.1.15,2013-07-28 16:05:00,
2013-07-28 10:09:00,57.1,53.9,22.61,NNW,348,4.0,21.0,89,0.00,,,0.00,Wunderground v.1.15,2013-07-28 16:09:00,
2013-07-28 10:13:00,57.3,54.1,22.61,NNE,22,3.0,21.0,89,0.00,,,0.00,Wunderground v.1.15,2013-07-28 16:13:00,
2013-07-28 10:15:00,57.3,53.8,22.61,East,98,3.0,21.0,88,0.00,,,0.00,Wunderground v.1.15,2013-07-28 16:15:00,
2013-07-28 10:17:00,57.4,53.9,22.61,NW,325,3.0,21.0,88,0.00,,,0.00,Wunderground v.1.15,2013-07-28 16:17:00,
2013-07-28 10:19:00,57.5,54.0,22.61,NW,320,3.0,21.0,88,0.00,,,0.00,Wunderground v.1.15,2013-07-28 16:19:00,
2013-07-28 10:21:00,57.4,53.9,22.61,NNW,335,3.0,3.0,88,0.00,,,0.00,Wunderground v.1.15,2013-07-28 16:21:00,
2013-07-28 10:25:00,57.6,54.4,22.61,NE,54,3.0,21.0,89,0.00,,,0.00,Wunderground v.1.15,2013-07-28 16:25:00,
2013-07-28 10:27:00,57.6,54.4,22.61,NNW,330,3.0,21.0,89,0.00,,,0.00,Wunderground v.1.15,2013-07-28 16:27:00,
2013-07-28 10:29:00,57.6,54.1,22.61,NW,323,4.0,21.0,88,0.00,,,0.00,Wunderground v.1.15,2013-07-28 16:29:00,
2013-07-28 10:33:00,57.5,54.0,22.61,WNW,302,4.0,21.0,88,0.00,,,0.00,Wunderground v.1.15,2013-07-28 16:33:00,
2013-07-28 10:37:00,57.5,53.7,22.61,NNW,342,4.0,21.0,87,0.00,,,0.00,Wunderground v.1.15,2013-07-28 16:37:00,
2013-07-28 10:41:00,57.7,53.9,22.62,NNW,347,3.0,21.0,87,0.00,,,0.00,Wunderground v.1.15,2013-07-28 16:41:00,
2013-07-28 10:43:00,57.8,53.6,22.62,North,6,3.0,21.0,86,0.00,,,0.00,Wunderground v.1.15,2013-07-28 16:43:00,
2013-07-28 10:45:00,57.7,53.5,22.62,North,355,3.0,21.0,86,0.00,,,0.00,Wunderground v.1.15,2013-07-28 16:45:00,
2013-07-28 10:47:00,57.9,54.1,22.62,North,351,3.0,21.0,87,0.00,,,0.00,Wunderground v.1.15,2013-07-28 16:47:00,
2013-07-28 10:53:00,58.0,53.5,22.62,NNE,18,3.0,21.0,85,0.00,,,0.00,Wunderground v.1.15,2013-07-28 16:53:00,
2013-07-28 10:57:00,58.0,53.5,22.62,NW,326,3.0,21.0,85,0.00,,,0.00,Wunderground v.1.15,2013-07-28 16:57:00,
2013-07-28 10:59:00,58.0,53.5,22.62,NNW,339,3.0,21.0,85,0.00,,,0.00,Wunderground v.1.15,2013-07-28 16:59:00,
2013-07-28 11:01:00,57.9,53.1,22.62,NNW,330,3.0,21.0,84,0.00,,,0.00,Wunderground v.1.15,2013-07-28 17:01:00,
2013-07-28 11:03:00,57.9,53.4,22.62,NW,316,3.0,21.0,85,0.00,,,0.00,Wunderground v.1.15,2013-07-28 17:03:00,
2013-07-28 11:05:00,58.2,54.7,22.62,ESE,115,2.0,21.0,88,0.00,,,0.00,Wunderground v.1.15,2013-07-28 17:05:00,
2013-07-28 11:09:00,58.2,54.0,22.62,NNW,348,3.0,21.0,86,0.00,,,0.00,Wunderground v.1.15,2013-07-28 17:09:00,
2013-07-28 11:11:00,58.1,53.9,22.62,North,5,2.0,21.0,86,0.00,,,0.00,Wunderground v.1.15,2013-07-28 17:11:00,
2013-07-28 11:15:00,58.2,54.7,22.62,NE,53,2.0,21.0,88,0.00,,,0.00,Wunderground v.1.15,2013-07-28 17:15:00,
2013-07-28 11:17:00,58.2,54.0,22.62,NNW,343,3.0,21.0,86,0.00,,,0.00,Wunderground v.1.15,2013-07-28 17:17:00,
2013-07-28 11:21:00,58.2,54.0,22.62,NNW,332,2.0,21.0,86,0.00,,,0.00,Wunderground v.1.15,2013-07-28 17:21:00,
2013-07-28 11:23:00,58.3,53.8,22.62,ENE,64,2.0,21.0,85,0.00,,,0.00,Wunderground v.1.15,2013-07-28 17:23:00,
2013-07-28 11:25:00,58.2,53.7,22.62,ENE,59,3.0,21.0,85,0.00,,,0.00,Wunderground v.1.15,2013-07-28 17:25:00,
2013-07-28 11:27:00,58.2,53.7,22.62,ENE,72,2.0,21.0,85,0.00,,,0.00,Wunderground v.1.15,2013-07-28 17:27:00,
2013-07-28 11:29:00,58.3,53.8,22.62,NE,40,2.0,21.0,85,0.00,,,0.00,Wunderground v.1.15,2013-07-28 17:29:00,
2013-07-28 11:33:00,58.3,53.8,22.62,North,9,3.0,21.0,85,0.00,,,0.00,Wunderground v.1.15,2013-07-28 17:33:00,
2013-07-28 11:37:00,58.3,53.8,22.62,ENE,70,3.0,21.0,85,0.00,,,0.00,Wunderground v.1.15,2013-07-28 17:37:00,
2013-07-28 11:39:00,58.4,53.6,22.62,NE,37,3.0,21.0,84,0.00,,,0.00,Wunderground v.1.15,2013-07-28 17:39:00,
2013-07-28 11:41:00,58.4,53.6,22.62,NW,320,3.0,3.0,84,0.00,,,0.00,Wunderground v.1.15,2013-07-28 17:41:00,
2013-07-28 11:43:00,58.4,53.6,22.62,NNW,342,2.0,21.0,84,0.00,,,0.00,Wunderground v.1.15,2013-07-28 17:43:00,
2013-07-28 11:45:00,58.5,53.7,22.62,ENE,65,2.0,21.0,84,0.00,,,0.00,Wunderground v.1.15,2013-07-28 17:45:00,
2013-07-28 11:47:00,58.5,53.4,22.62,NNW,344,2.0,21.0,83,0.00,,,0.00,Wunderground v.1.15,2013-07-28 17:47:00,
2013-07-28 11:49:00,58.6,53.8,22.62,NNW,330,2.0,21.0,84,0.00,,,0.00,Wunderground v.1.15,2013-07-28 17:49:00,
2013-07-28 11:53:00,58.6,53.5,22.62,NE,56,2.0,21.0,83,0.00,,,0.00,Wunderground v.1.15,2013-07-28 17:53:00,
2013-07-28 11:55:00,58.7,53.9,22.62,NE,39,2.0,21.0,84,0.00,,,0.00,Wunderground v.1.15,2013-07-28 17:55:00,
2013-07-28 11:57:00,58.8,54.0,22.62,NW,316,2.0,21.0,84,0.00,,,0.00,Wunderground v.1.15,2013-07-28 17:57:00,
2013-07-28 11:59:00,58.8,53.6,22.62,ENE,60,2.0,21.0,83,0.00,,,0.00,Wunderground v.1.15,2013-07-28 17:59:00,
2013-07-28 12:01:00,58.8,54.0,22.62,ENE,58,2.0,21.0,84,0.00,,,0.00,Wunderground v.1.15,2013-07-28 18:01:00,
2013-07-28 12:05:00,58.6,54.1,22.62,NNW,333,3.0,21.0,85,0.00,,,0.00,Wunderground v.1.15,2013-07-28 18:05:00,
2013-07-28 12:07:00,58.6,54.1,22.62,WNW,297,3.0,21.0,85,0.00,,,0.00,Wunderground v.1.15,2013-07-28 18:07:00,
2013-07-28 12:09:00,58.6,54.4,22.62,NW,308,2.0,21.0,86,0.00,,,0.00,Wunderground v.1.15,2013-07-28 18:09:00,
2013-07-28 12:11:00,58.5,54.0,22.62,North,349,2.0,2.0,85,0.00,,,0.01,Wunderground v.1.15,2013-07-28 18:11:00,
2013-07-28 12:13:00,58.6,54.4,22.62,NW,311,2.0,21.0,86,0.00,,,0.01,Wunderground v.1.15,2013-07-28 18:13:00,
2013-07-28 12:15:00,58.5,54.3,22.62,NNW,345,2.0,21.0,86,0.00,,,0.01,Wunderground v.1.15,2013-07-28 18:15:00,
2013-07-28 12:19:00,58.5,54.6,22.62,NE,44,2.0,21.0,87,0.00,,,0.01,Wunderground v.1.15,2013-07-28 18:19:00,
2013-07-28 12:23:00,58.4,53.9,22.62,North,9,2.0,21.0,85,0.00,,,0.01,Wunderground v.1.15,2013-07-28 18:23:00,
2013-07-28 12:25:00,58.5,54.3,22.62,NE,47,2.0,21.0,86,0.00,,,0.01,Wunderground v.1.15,2013-07-28 18:25:00,
2013-07-28 12:27:00,58.8,55.3,22.62,ENE,67,2.0,21.0,88,0.00,,,0.01,Wunderground v.1.15,2013-07-28 18:27:00,
2013-07-28 12:31:00,59.3,54.8,22.62,North,352,3.0,3.0,85,0.00,,,0.01,Wunderground v.1.15,2013-07-28 18:31:00,
2013-07-28 12:33:00,59.7,54.9,22.62,NNW,330,3.0,21.0,84,0.00,,,0.01,Wunderground v.1.15,2013-07-28 18:33:00,
2013-07-28 12:35:00,59.9,55.1,22.62,NNW,342,3.0,21.0,84,0.00,,,0.01,Wunderground v.1.15,2013-07-28 18:35:00,
2013-07-28 12:37:00,60.0,54.5,22.62,North,9,3.0,21.0,82,0.00,,,0.01,Wunderground v.1.15,2013-07-28 18:37:00,
2013-07-28 12:39:00,59.9,54.4,22.62,NE,46,4.0,21.0,82,0.00,,,0.01,Wunderground v.1.15,2013-07-28 18:39:00,
2013-07-28 12:43:00,59.8,54.0,22.62,NNW,330,3.0,21.0,81,0.00,,,0.01,Wunderground v.1.15,2013-07-28 18:43:00,
2013-07-28 12:45:00,59.8,54.6,22.62,NE,54,3.0,21.0,83,0.00,,,0.01,Wunderground v.1.15,2013-07-28 18:45:00,
2013-07-28 12:47:00,59.8,54.3,22.62,ENE,57,3.0,21.0,82,0.00,,,0.01,Wunderground v.1.15,2013-07-28 18:47:00,
2013-07-28 12:49:00,59.6,54.1,22.62,East,89,3.0,21.0,82,0.00,,,0.01,Wunderground v.1.15,2013-07-28 18:49:00,
2013-07-28 12:53:00,59.7,54.5,22.62,East,80,2.0,21.0,83,0.00,,,0.01,Wunderground v.1.15,2013-07-28 18:53:00,
2013-07-28 12:55:00,59.8,54.3,22.62,SE,134,2.0,21.0,82,0.00,,,0.01,Wunderground v.1.15,2013-07-28 18:55:00,
2013-07-28 12:57:00,59.9,54.1,22.62,SE,124,2.0,21.0,81,0.00,,,0.01,Wunderground v.1.15,2013-07-28 18:57:00,
2013-07-28 13:01:00,60.0,54.5,22.62,SE,139,1.0,21.0,82,0.00,,,0.01,Wunderground v.1.15,2013-07-28 19:01:00,
2013-07-28 13:05:00,60.4,54.2,22.62,WSW,249,1.0,21.0,80,0.00,,,0.01,Wunderground v.1.15,2013-07-28 19:05:00,
2013-07-28 13:13:00,60.1,53.9,22.62,SE,139,2.0,21.0,80,0.00,,,0.01,Wunderground v.1.15,2013-07-28 19:13:00,
2013-07-28 13:15:00,60.0,53.8,22.62,SE,134,2.0,21.0,80,0.00,,,0.01,Wunderground v.1.15,2013-07-28 19:15:00,
2013-07-28 13:19:00,59.9,54.1,22.62,SE,131,3.0,21.0,81,0.00,,,0.01,Wunderground v.1.15,2013-07-28 19:19:00,
2013-07-28 13:21:00,59.8,54.0,22.62,SSE,148,3.0,3.0,81,0.00,,,0.01,Wunderground v.1.15,2013-07-28 19:21:00,
2013-07-28 13:27:00,59.7,54.2,22.62,ESE,120,3.0,21.0,82,0.00,,,0.01,Wunderground v.1.15,2013-07-28 19:27:00,
2013-07-28 13:33:00,59.3,53.8,22.62,SSE,153,2.0,21.0,82,0.00,,,0.02,Wunderground v.1.15,2013-07-28 19:33:00,
2013-07-28 13:35:00,59.1,53.9,22.62,ESE,117,2.0,21.0,83,0.00,,,0.02,Wunderground v.1.15,2013-07-28 19:35:00,
2013-07-28 13:37:00,59.1,53.9,22.61,ENE,60,2.0,21.0,83,0.00,,,0.02,Wunderground v.1.15,2013-07-28 19:37:00,
2013-07-28 13:43:00,59.0,53.5,22.62,South,173,2.0,21.0,82,0.00,,,0.02,Wunderground v.1.15,2013-07-28 19:43:00,
2013-07-28 13:45:00,59.0,54.2,22.61,SE,141,2.0,21.0,84,0.00,,,0.02,Wunderground v.1.15,2013-07-28 19:45:00,
2013-07-28 13:49:00,59.1,53.6,22.61,SE,124,2.0,21.0,82,0.00,,,0.02,Wunderground v.1.15,2013-07-28 19:49:00,
2013-07-28 13:53:00,59.5,54.7,22.61,SE,134,2.0,21.0,84,0.00,,,0.02,Wunderground v.1.15,2013-07-28 19:53:00,
2013-07-28 13:55:00,59.7,54.2,22.61,ESE,108,2.0,21.0,82,0.00,,,0.02,Wunderground v.1.15,2013-07-28 19:55:00,
2013-07-28 13:57:00,59.9,54.7,22.61,SE,138,2.0,21.0,83,0.00,,,0.02,Wunderground v.1.15,2013-07-28 19:57:00,
2013-07-28 13:59:00,60.1,54.6,22.61,ESE,121,2.0,21.0,82,0.00,,,0.02,Wunderground v.1.15,2013-07-28 19:59:00,
2013-07-28 14:01:00,60.1,54.9,22.61,SE,131,2.0,21.0,83,0.00,,,0.02,Wunderground v.1.15,2013-07-28 20:01:00,
2013-07-28 14:07:00,60.6,55.1,22.61,ESE,122,2.0,21.0,82,0.00,,,0.02,Wunderground v.1.15,2013-07-28 20:07:00,
2013-07-28 14:09:00,60.7,54.5,22.61,SSE,165,2.0,21.0,80,0.00,,,0.02,Wunderground v.1.15,2013-07-28 20:09:00,
2013-07-28 14:11:00,60.9,54.7,22.61,SE,142,2.0,2.0,80,0.00,,,0.02,Wunderground v.1.15,2013-07-28 20:11:00,
2013-07-28 14:13:00,61.1,54.5,22.61,SSE,155,2.0,21.0,79,0.00,,,0.02,Wunderground v.1.15,2013-07-28 20:13:00,
2013-07-28 14:17:00,61.3,54.4,22.61,ENE,69,1.0,21.0,78,0.00,,,0.02,Wunderground v.1.15,2013-07-28 20:17:00,
2013-07-28 14:19:00,61.2,53.9,22.61,NNW,343,1.0,21.0,77,0.00,,,0.02,Wunderground v.1.15,2013-07-28 20:19:00,
2013-07-28 14:23:00,61.2,55.0,22.61,ENE,57,1.0,21.0,80,0.00,,,0.02,Wunderground v.1.15,2013-07-28 20:23:00,
2013-07-28 14:25:00,61.3,54.4,22.61,NE,56,1.0,21.0,78,0.00,,,0.02,Wunderground v.1.15,2013-07-28 20:25:00,
2013-07-28 14:27:00,61.0,54.1,22.62,East,101,1.0,21.0,78,0.00,,,0.02,Wunderground v.1.15,2013-07-28 20:27:00,
2013-07-28 14:29:00,60.7,53.8,22.61,NNE,19,1.0,21.0,78,0.00,,,0.02,Wunderground v.1.15,2013-07-28 20:29:00,
2013-07-28 14:33:00,60.5,53.6,22.61,ENE,63,2.0,21.0,78,0.00,,,0.02,Wunderground v.1.15,2013-07-28 20:33:00,
2013-07-28 14:35:00,60.5,54.0,22.61,ENE,63,2.0,21.0,79,0.00,,,0.02,Wunderground v.1.15,2013-07-28 20:35:00,
2013-07-28 14:41:00,60.4,54.2,22.62,NW,316,2.0,21.0,80,0.00,,,0.02,Wunderground v.1.15,2013-07-28 20:41:00,
2013-07-28 14:45:00,60.2,54.7,22.62,NNW,345,2.0,21.0,82,0.00,,,0.02,Wunderground v.1.15,2013-07-28 20:45:00,
2013-07-28 14:47:00,60.1,55.2,22.62,NW,326,2.0,21.0,84,0.00,,,0.02,Wunderground v.1.15,2013-07-28 20:47:00,
2013-07-28 14:53:00,59.6,55.1,22.62,NW,326,2.0,21.0,85,0.00,,,0.03,Wunderground v.1.15,2013-07-28 20:53:00,
2013-07-28 14:55:00,59.6,54.8,22.62,NNW,330,2.0,21.0,84,0.00,,,0.03,Wunderground v.1.15,2013-07-28 20:55:00,
2013-07-28 14:57:00,59.7,55.5,22.62,NNW,330,1.0,21.0,86,0.00,,,0.03,Wunderground v.1.15,2013-07-28 20:57:00,
2013-07-28 15:01:00,60.1,55.9,22.62,NW,326,1.0,1.0,86,0.00,,,0.03,Wunderground v.1.15,2013-07-28 21:01:00,
2013-07-28 15:05:00,60.3,55.8,22.62,WNW,295,0.0,21.0,85,0.00,,,0.03,Wunderground v.1.15,2013-07-28 21:05:00,
2013-07-28 15:09:00,60.2,55.3,22.62,SW,233,0.0,21.0,84,0.00,,,0.03,Wunderground v.1.15,2013-07-28 21:09:00,
2013-07-28 15:11:00,60.2,54.7,22.62,SSW,210,0.0,21.0,82,0.00,,,0.03,Wunderground v.1.15,2013-07-28 21:11:00,
2013-07-28 15:13:00,60.1,54.2,22.62,South,176,0.0,21.0,81,0.00,,,0.03,Wunderground v.1.15,2013-07-28 21:13:00,
2013-07-28 15:17:00,60.0,54.8,22.62,SSW,209,1.0,21.0,83,0.00,,,0.04,Wunderground v.1.15,2013-07-28 21:17:00,
2013-07-28 15:19:00,59.9,54.7,22.61,SW,221,1.0,21.0,83,0.00,,,0.04,Wunderground v.1.15,2013-07-28 21:19:00,
2013-07-28 15:23:00,59.7,54.5,22.61,SW,236,2.0,21.0,83,0.00,,,0.04,Wunderground v.1.15,2013-07-28 21:23:00,
2013-07-28 15:25:00,59.5,52.6,22.61,WSW,239,3.0,21.0,78,0.00,,,0.04,Wunderground v.1.15,2013-07-28 21:25:00,
2013-07-28 15:27:00,59.5,53.3,22.61,WSW,249,3.0,21.0,80,0.00,,,0.04,Wunderground v.1.15,2013-07-28 21:27:00,
2013-07-28 15:29:00,59.3,53.5,22.61,SW,232,3.0,21.0,81,0.00,,,0.04,Wunderground v.1.15,2013-07-28 21:29:00,
2013-07-28 15:31:00,59.1,52.6,22.61,West,264,4.0,21.0,79,0.00,,,0.04,Wunderground v.1.15,2013-07-28 21:31:00,
2013-07-28 15:33:00,59.0,52.5,22.60,SW,217,4.0,21.0,79,0.00,,,0.04,Wunderground v.1.15,2013-07-28 21:33:00,
2013-07-28 15:35:00,59.1,53.6,22.60,WSW,242,3.0,21.0,82,0.00,,,0.04,Wunderground v.1.15,2013-07-28 21:35:00,
2013-07-28 15:37:00,59.1,52.9,22.61,West,264,2.0,21.0,80,0.00,,,0.04,Wunderground v.1.15,2013-07-28 21:37:00,
2013-07-28 15:39:00,59.2,53.4,22.60,SSW,195,2.0,21.0,81,0.00,,,0.04,Wunderground v.1.15,2013-07-28 21:39:00,
2013-07-28 15:41:00,59.4,53.2,22.60,SE,128,2.0,21.0,80,0.00,,,0.04,Wunderground v.1.15,2013-07-28 21:41:00,
2013-07-28 15:43:00,59.7,53.5,22.60,SE,135,2.0,21.0,80,0.00,,,0.04,Wunderground v.1.15,2013-07-28 21:43:00,
2013-07-28 15:47:00,60.5,53.6,22.60,WNW,295,2.0,21.0,78,0.00,,,0.04,Wunderground v.1.15,2013-07-28 21:47:00,
2013-07-28 15:49:00,60.8,51.7,22.60,NNE,13,2.0,21.0,72,0.00,,,0.04,Wunderground v.1.15,2013-07-28 21:49:00,
2013-07-28 15:53:00,61.6,53.6,22.60,WSW,247,2.0,21.0,75,0.00,,,0.04,Wunderground v.1.15,2013-07-28 21:53:00,
2013-07-28 15:55:00,62.1,54.4,22.60,West,260,1.0,21.0,76,0.00,,,0.04,Wunderground v.1.15,2013-07-28 21:55:00,
2013-07-28 15:57:00,62.7,54.3,22.60,WSW,242,2.0,21.0,74,0.00,,,0.04,Wunderground v.1.15,2013-07-28 21:57:00,
2013-07-28 15:59:00,62.8,53.3,22.60,SW,224,2.0,21.0,71,0.00,,,0.04,Wunderground v.1.15,2013-07-28 21:59:00,
2013-07-28 16:01:00,63.1,52.8,22.60,WSW,243,1.0,1.0,69,0.00,,,0.04,Wunderground v.1.15,2013-07-28 22:01:00,
2013-07-28 16:05:00,63.5,53.5,22.59,ESE,117,1.0,21.0,70,0.00,,,0.04,Wunderground v.1.15,2013-07-28 22:05:00,
2013-07-28 16:07:00,63.6,54.0,22.59,SSE,150,1.0,21.0,71,0.00,,,0.04,Wunderground v.1.15,2013-07-28 22:07:00,
2013-07-28 16:09:00,63.7,53.7,22.59,SSW,195,1.0,21.0,70,0.00,,,0.04,Wunderground v.1.15,2013-07-28 22:09:00,
2013-07-28 16:11:00,64.1,53.7,22.59,SW,232,1.0,21.0,69,0.00,,,0.04,Wunderground v.1.15,2013-07-28 22:11:00,
2013-07-28 16:13:00,64.6,53.4,22.59,WNW,293,1.0,21.0,67,0.00,,,0.04,Wunderground v.1.15,2013-07-28 22:13:00,
2013-07-28 16:15:00,65.0,52.1,22.59,WSW,249,2.0,21.0,63,0.00,,,0.04,Wunderground v.1.15,2013-07-28 22:15:00,
2013-07-28 16:17:00,65.4,52.5,22.59,West,259,3.0,21.0,63,0.00,,,0.04,Wunderground v.1.15,2013-07-28 22:17:00,
2013-07-28 16:19:00,65.8,51.5,22.59,WSW,239,3.0,21.0,60,0.00,,,0.04,Wunderground v.1.15,2013-07-28 22:19:00,
2013-07-28 16:21:00,66.0,51.3,22.59,WSW,252,5.0,21.0,59,0.00,,,0.04,Wunderground v.1.15,2013-07-28 22:21:00,
2013-07-28 16:23:00,66.1,51.8,22.59,WSW,256,6.0,21.0,60,0.00,,,0.04,Wunderground v.1.15,2013-07-28 22:23:00,
2013-07-28 16:25:00,66.2,51.0,22.58,SW,226,6.0,21.0,58,0.00,,,0.04,Wunderground v.1.15,2013-07-28 22:25:00,
2013-07-28 16:27:00,66.4,52.1,22.58,WSW,256,6.0,21.0,60,0.00,,,0.04,Wunderground v.1.15,2013-07-28 22:27:00,
2013-07-28 16:29:00,66.8,51.5,22.58,SE,145,6.0,21.0,58,0.00,,,0.04,Wunderground v.1.15,2013-07-28 22:29:00,
2013-07-28 16:31:00,67.2,52.8,22.58,SW,219,5.0,21.0,60,0.00,,,0.04,Wunderground v.1.15,2013-07-28 22:31:00,
2013-07-28 16:35:00,67.6,51.3,22.58,SSW,210,5.0,21.0,56,0.00,,,0.04,Wunderground v.1.15,2013-07-28 22:35:00,
2013-07-28 16:37:00,67.7,51.9,22.58,SW,214,5.0,21.0,57,0.00,,,0.04,Wunderground v.1.15,2013-07-28 22:37:00,
2013-07-28 16:39:00,68.0,51.7,22.58,SSW,205,5.0,21.0,56,0.00,,,0.04,Wunderground v.1.15,2013-07-28 22:39:00,
2013-07-28 16:45:00,67.7,48.9,22.57,West,269,7.0,21.0,51,0.00,,,0.04,Wunderground v.1.15,2013-07-28 22:45:00,
2013-07-28 16:47:00,67.8,50.0,22.58,WSW,253,7.0,21.0,53,0.00,,,0.04,Wunderground v.1.15,2013-07-28 22:47:00,
2013-07-28 16:51:00,68.2,49.4,22.58,SSW,193,7.0,7.0,51,0.00,,,0.04,Wunderground v.1.15,2013-07-28 22:51:00,
2013-07-28 16:53:00,68.4,49.0,22.57,WSW,253,6.0,21.0,50,0.00,,,0.04,Wunderground v.1.15,2013-07-28 22:53:00,
2013-07-28 16:55:00,68.6,49.7,22.57,SW,233,5.0,21.0,51,0.00,,,0.04,Wunderground v.1.15,2013-07-28 22:55:00,
2013-07-28 16:59:00,68.8,49.4,22.57,West,276,4.0,21.0,50,0.00,,,0.04,Wunderground v.1.15,2013-07-28 22:59:00,
2013-07-28 17:01:00,69.0,48.5,22.57,SW,218,4.0,21.0,48,0.00,,,0.04,Wunderground v.1.15,2013-07-28 23:01:00,
2013-07-28 17:03:00,69.0,49.0,22.57,SW,225,5.0,21.0,49,0.00,,,0.04,Wunderground v.1.15,2013-07-28 23:03:00,
2013-07-28 17:05:00,69.0,47.9,22.57,WSW,253,5.0,21.0,47,0.00,,,0.04,Wunderground v.1.15,2013-07-28 23:05:00,
2013-07-28 17:09:00,69.0,48.5,22.57,West,273,6.0,21.0,48,0.00,,,0.04,Wunderground v.1.15,2013-07-28 23:09:00,
2013-07-28 17:13:00,69.2,48.7,22.57,WNW,298,6.0,21.0,48,0.00,,,0.04,Wunderground v.1.15,2013-07-28 23:13:00,
2013-07-28 17:15:00,69.2,48.1,22.57,SSE,160,6.0,21.0,47,0.00,,,0.04,Wunderground v.1.15,2013-07-28 23:15:00,
2013-07-28 17:17:00,69.3,48.8,22.57,South,191,6.0,21.0,48,0.00,,,0.04,Wunderground v.1.15,2013-07-28 23:17:00,
2013-07-28 17:19:00,69.4,48.3,22.57,West,278,6.0,21.0,47,0.00,,,0.04,Wunderground v.1.15,2013-07-28 23:19:00,
2013-07-28 17:23:00,69.3,48.2,22.57,South,170,7.0,21.0,47,0.00,,,0.04,Wunderground v.1.15,2013-07-28 23:23:00,
2013-07-28 17:25:00,69.2,48.1,22.57,WSW,256,7.0,21.0,47,0.00,,,0.04,Wunderground v.1.15,2013-07-28 23:25:00,
2013-07-28 17:27:00,69.1,48.0,22.57,West,276,7.0,21.0,47,0.00,,,0.04,Wunderground v.1.15,2013-07-28 23:27:00,
2013-07-28 17:31:00,69.2,49.2,22.57,South,191,6.0,6.0,49,0.00,,,0.04,Wunderground v.1.15,2013-07-28 23:31:00,
2013-07-28 17:33:00,69.3,48.2,22.57,West,276,6.0,21.0,47,0.00,,,0.04,Wunderground v.1.15,2013-07-28 23:33:00,
2013-07-28 17:35:00,69.3,49.3,22.57,SW,219,5.0,21.0,49,0.00,,,0.04,Wunderground v.1.15,2013-07-28 23:35:00,
2013-07-28 17:37:00,69.3,48.2,22.57,WSW,252,5.0,21.0,47,0.00,,,0.04,Wunderground v.1.15,2013-07-28 23:37:00,
2013-07-28 17:39:00,69.3,48.8,22.57,WSW,252,5.0,21.0,48,0.00,,,0.04,Wunderground v.1.15,2013-07-28 23:39:00,
2013-07-28 17:41:00,69.3,49.3,22.57,SW,228,6.0,21.0,49,0.00,,,0.04,Wunderground v.1.15,2013-07-28 23:41:00,
2013-07-28 17:43:00,69.3,48.8,22.57,WSW,250,6.0,21.0,48,0.00,,,0.04,Wunderground v.1.15,2013-07-28 23:43:00,
2013-07-28 17:45:00,69.4,48.9,22.57,WSW,249,6.0,21.0,48,0.00,,,0.04,Wunderground v.1.15,2013-07-28 23:45:00,
2013-07-28 17:47:00,69.4,49.4,22.57,SW,236,6.0,21.0,49,0.00,,,0.04,Wunderground v.1.15,2013-07-28 23:47:00,
2013-07-28 17:51:00,69.5,48.9,22.57,SW,235,6.0,6.0,48,0.00,,,0.04,Wunderground v.1.15,2013-07-28 23:51:00,
2013-07-28 17:53:00,69.5,48.9,22.57,SSW,211,5.0,21.0,48,0.00,,,0.04,Wunderground v.1.15,2013-07-28 23:53:00,
2013-07-28 17:59:00,69.6,49.0,22.57,SW,215,5.0,21.0,48,0.00,,,0.04,Wunderground v.1.15,2013-07-28 23:59:00,
2013-07-28 18:01:00,69.6,48.5,22.57,SW,218,4.0,21.0,47,0.00,,,0.04,Wunderground v.1.15,2013-07-29 00:01:00,
2013-07-28 18:07:00,69.9,48.7,22.57,SSW,212,3.0,21.0,47,0.00,,,0.04,Wunderground v.1.15,2013-07-29 00:07:00,
2013-07-28 18:11:00,69.7,48.0,22.57,SW,236,4.0,21.0,46,0.00,,,0.04,Wunderground v.1.15,2013-07-29 00:11:00,
2013-07-28 18:13:00,69.6,47.9,22.57,SW,214,4.0,21.0,46,0.00,,,0.04,Wunderground v.1.15,2013-07-29 00:13:00,
2013-07-28 18:15:00,69.6,49.0,22.57,WSW,257,4.0,21.0,48,0.00,,,0.04,Wunderground v.1.15,2013-07-29 00:15:00,
2013-07-28 18:17:00,69.8,48.7,22.58,NNE,23,4.0,21.0,47,0.00,,,0.04,Wunderground v.1.15,2013-07-29 00:17:00,
2013-07-28 18:21:00,69.9,48.7,22.58,ENE,60,3.0,21.0,47,0.00,,,0.04,Wunderground v.1.15,2013-07-29 00:21:00,
2013-07-28 18:23:00,69.0,54.5,22.58,NE,50,4.0,21.0,60,0.00,,,0.04,Wunderground v.1.15,2013-07-29 00:23:00,
2013-07-28 18:29:00,65.6,55.2,22.59,NNW,337,6.0,21.0,69,0.00,,,0.04,Wunderground v.1.15,2013-07-29 00:29:00,
2013-07-28 18:31:00,64.7,55.1,22.59,North,11,6.0,6.0,71,0.00,,,0.04,Wunderground v.1.15,2013-07-29 00:31:00,
2013-07-28 18:33:00,63.9,54.7,22.59,North,4,6.0,21.0,72,0.00,,,0.04,Wunderground v.1.15,2013-07-29 00:33:00,
2013-07-28 18:35:00,63.2,54.4,22.59,NNW,344,6.0,21.0,73,0.00,,,0.04,Wunderground v.1.15,2013-07-29 00:35:00,
2013-07-28 18:39:00,62.2,54.5,22.59,NNW,346,5.0,21.0,76,0.00,,,0.04,Wunderground v.1.15,2013-07-29 00:39:00,
2013-07-28 18:41:00,61.9,54.2,22.59,NE,37,5.0,5.0,76,0.00,,,0.04,Wunderground v.1.15,2013-07-29 00:41:00,
2013-07-28 18:45:00,61.4,54.8,22.60,East,91,4.0,21.0,79,0.00,,,0.04,Wunderground v.1.15,2013-07-29 00:45:00,
2013-07-28 18:49:00,61.2,55.0,22.60,SE,128,4.0,21.0,80,0.00,,,0.04,Wunderground v.1.15,2013-07-29 00:49:00,
2013-07-28 18:51:00,61.2,55.0,22.60,NE,54,3.0,21.0,80,0.00,,,0.04,Wunderground v.1.15,2013-07-29 00:51:00,
2013-07-28 18:53:00,61.2,55.0,22.60,North,352,3.0,21.0,80,0.00,,,0.04,Wunderground v.1.15,2013-07-29 00:53:00,
2013-07-28 18:55:00,61.1,54.9,22.60,NNW,343,3.0,21.0,80,0.00,,,0.04,Wunderground v.1.15,2013-07-29 00:55:00,
2013-07-28 18:59:00,60.9,54.3,22.60,SE,144,3.0,21.0,79,0.00,,,0.04,Wunderground v.1.15,2013-07-29 00:59:00,
2013-07-28 19:03:00,60.9,54.3,22.60,ESE,105,3.0,21.0,79,0.00,,,0.04,Wunderground v.1.15,2013-07-29 01:03:00,
2013-07-28 19:05:00,60.8,53.9,22.60,ENE,64,3.0,21.0,78,0.00,,,0.04,Wunderground v.1.15,2013-07-29 01:05:00,
2013-07-28 19:07:00,60.7,54.1,22.60,ENE,60,3.0,21.0,79,0.00,,,0.04,Wunderground v.1.15,2013-07-29 01:07:00,
2013-07-28 19:09:00,60.7,53.8,22.60,ENE,78,3.0,21.0,78,0.00,,,0.04,Wunderground v.1.15,2013-07-29 01:09:00,
2013-07-28 19:11:00,60.7,54.1,22.60,SSE,159,2.0,21.0,79,0.00,,,0.04,Wunderground v.1.15,2013-07-29 01:11:00,
2013-07-28 19:13:00,60.8,53.9,22.60,WNW,285,2.0,21.0,78,0.00,,,0.04,Wunderground v.1.15,2013-07-29 01:13:00,
2013-07-28 19:19:00,60.8,54.2,22.60,SW,215,1.0,21.0,79,0.00,,,0.04,Wunderground v.1.15,2013-07-29 01:19:00,
2013-07-28 19:21:00,60.8,54.2,22.61,SW,215,1.0,1.0,79,0.00,,,0.04,Wunderground v.1.15,2013-07-29 01:21:00,
2013-07-28 19:27:00,60.7,54.1,22.61,SW,216,0.0,21.0,79,0.00,,,0.04,Wunderground v.1.15,2013-07-29 01:27:00,
2013-07-28 19:29:00,60.5,54.0,22.61,SSW,210,0.0,21.0,79,0.00,,,0.04,Wunderground v.1.15,2013-07-29 01:29:00,
2013-07-28 19:35:00,60.2,53.7,22.61,SSW,200,0.0,21.0,79,0.00,,,0.04,Wunderground v.1.15,2013-07-29 01:35:00,
2013-07-28 19:37:00,60.1,53.6,22.61,SSW,200,0.0,21.0,79,0.00,,,0.04,Wunderground v.1.15,2013-07-29 01:37:00,
2013-07-28 19:43:00,59.7,53.5,22.61,SSW,200,0.0,21.0,80,0.00,,,0.04,Wunderground v.1.15,2013-07-29 01:43:00,
2013-07-28 19:45:00,59.5,53.7,22.61,SSW,200,0.0,21.0,81,0.00,,,0.04,Wunderground v.1.15,2013-07-29 01:45:00,
2013-07-28 19:47:00,59.4,53.6,22.61,SSW,201,0.0,21.0,81,0.00,,,0.04,Wunderground v.1.15,2013-07-29 01:47:00,
2013-07-28 19:53:00,59.2,53.4,22.61,SW,214,0.0,21.0,81,0.00,,,0.04,Wunderground v.1.15,2013-07-29 01:53:00,
2013-07-28 19:55:00,59.1,53.3,22.61,SW,221,0.0,21.0,81,0.00,,,0.04,Wunderground v.1.15,2013-07-29 01:55:00,
2013-07-28 19:59:00,58.8,53.3,22.61,SE,131,1.0,21.0,82,0.00,,,0.04,Wunderground v.1.15,2013-07-29 01:59:00,
2013-07-28 20:03:00,58.7,53.2,22.61,WNW,287,1.0,21.0,82,0.00,,,0.04,Wunderground v.1.15,2013-07-29 02:03:00,
2013-07-28 20:07:00,58.7,53.2,22.61,SE,143,1.0,21.0,82,0.00,,,0.04,Wunderground v.1.15,2013-07-29 02:07:00,
2013-07-28 20:09:00,58.7,53.2,22.61,SE,142,0.0,21.0,82,0.00,,,0.04,Wunderground v.1.15,2013-07-29 02:09:00,
2013-07-28 20:15:00,58.6,53.5,22.61,SE,141,0.0,21.0,83,0.00,,,0.04,Wunderground v.1.15,2013-07-29 02:15:00,
2013-07-28 20:17:00,58.5,53.4,22.61,SE,142,0.0,21.0,83,0.00,,,0.04,Wunderground v.1.15,2013-07-29 02:17:00,
2013-07-28 20:21:00,58.4,53.6,22.61,SE,131,0.0,21.0,84,0.00,,,0.04,Wunderground v.1.15,2013-07-29 02:21:00,
2013-07-28 20:25:00,58.4,53.6,22.61,South,184,1.0,21.0,84,0.00,,,0.04,Wunderground v.1.15,2013-07-29 02:25:00,
2013-07-28 20:27:00,58.3,53.5,22.61,South,184,1.0,21.0,84,0.00,,,0.04,Wunderground v.1.15,2013-07-29 02:27:00,
2013-07-28 20:33:00,58.0,53.8,22.61,South,184,0.0,21.0,86,0.00,,,0.04,Wunderground v.1.15,2013-07-29 02:33:00,
2013-07-28 20:35:00,57.8,53.6,22.61,SSW,205,0.0,21.0,86,0.00,,,0.04,Wunderground v.1.15,2013-07-29 02:35:00,
2013-07-28 20:39:00,57.6,53.1,22.61,ENE,65,1.0,21.0,85,0.00,,,0.04,Wunderground v.1.15,2013-07-29 02:39:00,
2013-07-28 20:43:00,57.5,53.0,22.62,ENE,65,1.0,21.0,85,0.00,,,0.04,Wunderground v.1.15,2013-07-29 02:43:00,
2013-07-28 20:45:00,57.4,53.2,22.62,ENE,65,1.0,21.0,86,0.00,,,0.04,Wunderground v.1.15,2013-07-29 02:45:00,
2013-07-28 20:47:00,57.4,53.2,22.62,ENE,65,1.0,21.0,86,0.00,,,0.04,Wunderground v.1.15,2013-07-29 02:47:00,
2013-07-28 20:49:00,57.2,53.0,22.62,ENE,65,0.0,21.0,86,0.00,,,0.04,Wunderground v.1.15,2013-07-29 02:49:00,
2013-07-28 20:51:00,57.2,53.0,22.62,ENE,65,0.0,21.0,86,0.00,,,0.04,Wunderground v.1.15,2013-07-29 02:51:00,
2013-07-28 20:53:00,57.1,53.0,22.61,West,263,0.0,21.0,86,0.00,,,0.04,Wunderground v.1.15,2013-07-29 02:53:00,
2013-07-28 20:57:00,57.0,53.2,22.61,SW,236,1.0,21.0,87,0.00,,,0.04,Wunderground v.1.15,2013-07-29 02:57:00,
2013-07-28 21:01:00,57.0,53.2,22.62,WSW,253,1.0,21.0,87,0.00,,,0.04,Wunderground v.1.15,2013-07-29 03:01:00,
2013-07-28 21:03:00,57.0,53.2,22.62,WSW,252,1.0,21.0,87,0.00,,,0.04,Wunderground v.1.15,2013-07-29 03:03:00,
2013-07-28 21:07:00,56.7,52.9,22.62,WSW,253,1.0,21.0,87,0.00,,,0.04,Wunderground v.1.15,2013-07-29 03:07:00,
2013-07-28 21:13:00,56.5,53.0,22.62,WSW,252,1.0,21.0,88,0.00,,,0.04,Wunderground v.1.15,2013-07-29 03:13:00,
2013-07-28 21:15:00,56.5,53.0,22.62,WSW,253,1.0,21.0,88,0.00,,,0.04,Wunderground v.1.15,2013-07-29 03:15:00,
2013-07-28 21:17:00,56.4,52.9,22.62,WSW,253,0.0,21.0,88,0.00,,,0.04,Wunderground v.1.15,2013-07-29 03:17:00,
2013-07-28 21:21:00,56.2,52.7,22.62,SW,215,0.0,21.0,88,0.00,,,0.04,Wunderground v.1.15,2013-07-29 03:21:00,
2013-07-28 21:23:00,56.1,52.6,22.62,WSW,240,0.0,21.0,88,0.00,,,0.04,Wunderground v.1.15,2013-07-29 03:23:00,
2013-07-28 21:25:00,56.0,52.8,22.62,WSW,240,0.0,21.0,89,0.00,,,0.04,Wunderground v.1.15,2013-07-29 03:25:00,
2013-07-28 21:29:00,55.9,52.7,22.62,WSW,240,0.0,21.0,89,0.00,,,0.04,Wunderground v.1.15,2013-07-29 03:29:00,
2013-07-28 21:31:00,55.8,52.6,22.62,WSW,240,0.0,21.0,89,0.00,,,0.04,Wunderground v.1.15,2013-07-29 03:31:00,
2013-07-28 21:35:00,55.6,52.4,22.62,WSW,240,0.0,21.0,89,0.00,,,0.04,Wunderground v.1.15,2013-07-29 03:35:00,
2013-07-28 21:39:00,55.3,52.1,22.63,WSW,240,0.0,21.0,89,0.00,,,0.04,Wunderground v.1.15,2013-07-29 03:39:00,
2013-07-28 21:43:00,55.2,52.3,22.63,West,278,0.0,21.0,90,0.00,,,0.04,Wunderground v.1.15,2013-07-29 03:43:00,
2013-07-28 21:45:00,55.1,52.2,22.62,WNW,294,0.0,21.0,90,0.00,,,0.04,Wunderground v.1.15,2013-07-29 03:45:00,
2013-07-28 21:49:00,55.0,52.1,22.62,WNW,294,0.0,21.0,90,0.00,,,0.04,Wunderground v.1.15,2013-07-29 03:49:00,
2013-07-28 21:51:00,55.0,52.4,22.62,WSW,256,0.0,21.0,91,0.00,,,0.04,Wunderground v.1.15,2013-07-29 03:51:00,
2013-07-28 21:55:00,54.9,52.0,22.63,SW,236,0.0,21.0,90,0.00,,,0.04,Wunderground v.1.15,2013-07-29 03:55:00,
2013-07-28 21:59:00,54.6,51.7,22.63,SW,236,0.0,21.0,90,0.00,,,0.04,Wunderground v.1.15,2013-07-29 03:59:00,
2013-07-28 22:01:00,54.5,51.9,22.62,WSW,238,0.0,21.0,91,0.00,,,0.04,Wunderground v.1.15,2013-07-29 04:01:00,
2013-07-28 22:03:00,54.4,51.8,22.62,SW,236,0.0,21.0,91,0.00,,,0.04,Wunderground v.1.15,2013-07-29 04:03:00,
2013-07-28 22:05:00,54.3,51.7,22.62,WSW,238,0.0,21.0,91,0.00,,,0.04,Wunderground v.1.15,2013-07-29 04:05:00,
2013-07-28 22:09:00,54.1,51.5,22.62,WSW,238,0.0,21.0,91,0.00,,,0.04,Wunderground v.1.15,2013-07-29 04:09:00,
2013-07-28 22:15:00,53.8,51.2,22.61,WSW,238,0.0,21.0,91,0.00,,,0.04,Wunderground v.1.15,2013-07-29 04:15:00,
2013-07-28 22:17:00,53.7,51.4,22.61,WSW,238,0.0,21.0,92,0.00,,,0.04,Wunderground v.1.15,2013-07-29 04:17:00,
2013-07-28 22:19:00,53.6,51.3,22.61,WSW,238,0.0,21.0,92,0.00,,,0.04,Wunderground v.1.15,2013-07-29 04:19:00,
2013-07-28 22:21:00,53.5,51.2,22.61,WSW,238,0.0,21.0,92,0.00,,,0.04,Wunderground v.1.15,2013-07-29 04:21:00,
2013-07-28 22:23:00,53.4,51.1,22.61,WSW,238,0.0,21.0,92,0.00,,,0.04,Wunderground v.1.15,2013-07-29 04:23:00,
2013-07-28 22:25:00,53.4,51.1,22.61,WSW,238,0.0,21.0,92,0.00,,,0.04,Wunderground v.1.15,2013-07-29 04:25:00,
2013-07-28 22:29:00,53.3,51.3,22.61,WSW,252,0.0,21.0,93,0.00,,,0.04,Wunderground v.1.15,2013-07-29 04:29:00,
2013-07-28 22:31:00,53.3,51.3,22.61,WSW,252,0.0,21.0,93,0.00,,,0.04,Wunderground v.1.15,2013-07-29 04:31:00,
2013-07-28 22:35:00,53.3,51.3,22.61,WSW,252,0.0,21.0,93,0.00,,,0.04,Wunderground v.1.15,2013-07-29 04:35:00,
2013-07-28 22:37:00,53.3,51.3,22.61,WSW,252,0.0,21.0,93,0.00,,,0.04,Wunderground v.1.15,2013-07-29 04:37:00,
2013-07-28 22:39:00,53.3,51.3,22.61,WSW,251,0.0,21.0,93,0.00,,,0.04,Wunderground v.1.15,2013-07-29 04:39:00,
2013-07-28 22:43:00,53.3,51.3,22.61,WSW,252,0.0,21.0,93,0.00,,,0.04,Wunderground v.1.15,2013-07-29 04:43:00,
2013-07-28 22:45:00,53.2,51.2,22.61,WSW,252,0.0,21.0,93,0.00,,,0.04,Wunderground v.1.15,2013-07-29 04:45:00,
2013-07-28 22:51:00,53.1,51.1,22.61,SSE,165,0.0,21.0,93,0.00,,,0.04,Wunderground v.1.15,2013-07-29 04:51:00,
2013-07-28 22:53:00,53.0,51.0,22.61,SSE,162,0.0,21.0,93,0.00,,,0.04,Wunderground v.1.15,2013-07-29 04:53:00,
2013-07-28 22:55:00,52.9,50.9,22.61,SSE,162,0.0,21.0,93,0.00,,,0.04,Wunderground v.1.15,2013-07-29 04:55:00,
2013-07-28 22:59:00,52.8,50.8,22.62,SE,131,0.0,21.0,93,0.00,,,0.04,Wunderground v.1.15,2013-07-29 04:59:00,
2013-07-28 23:01:00,52.8,50.8,22.62,SE,131,0.0,21.0,93,0.00,,,0.04,Wunderground v.1.15,2013-07-29 05:01:00,
2013-07-28 23:05:00,52.8,50.8,22.61,SE,130,0.0,21.0,93,0.00,,,0.04,Wunderground v.1.15,2013-07-29 05:05:00,
2013-07-28 23:07:00,52.8,50.8,22.61,NNW,328,0.0,21.0,93,0.00,,,0.04,Wunderground v.1.15,2013-07-29 05:07:00,
2013-07-28 23:13:00,53.0,50.7,22.61,NNW,328,0.0,21.0,92,0.00,,,0.04,Wunderground v.1.15,2013-07-29 05:13:00,
2013-07-28 23:15:00,53.0,50.7,22.61,NNW,328,0.0,21.0,92,0.00,,,0.04,Wunderground v.1.15,2013-07-29 05:15:00,
2013-07-28 23:17:00,53.1,50.8,22.61,NNW,328,0.0,21.0,92,0.00,,,0.04,Wunderground v.1.15,2013-07-29 05:17:00,
2013-07-28 23:21:00,53.1,50.8,22.61,NNW,328,0.0,21.0,92,0.00,,,0.04,Wunderground v.1.15,2013-07-29 05:21:00,
2013-07-28 23:23:00,53.1,50.8,22.61,NNW,327,0.0,21.0,92,0.00,,,0.04,Wunderground v.1.15,2013-07-29 05:23:00,
2013-07-28 23:25:00,53.1,50.8,22.61,NNW,327,0.0,21.0,92,0.00,,,0.04,Wunderground v.1.15,2013-07-29 05:25:00,
2013-07-28 23:31:00,53.0,50.7,22.61,NNW,327,0.0,21.0,92,0.00,,,0.04,Wunderground v.1.15,2013-07-29 05:31:00,
2013-07-28 23:33:00,53.0,50.7,22.61,NNW,327,0.0,21.0,92,0.00,,,0.04,Wunderground v.1.15,2013-07-29 05:33:00,
2013-07-28 23:37:00,53.1,50.8,22.61,NNW,328,0.0,21.0,92,0.00,,,0.04,Wunderground v.1.15,2013-07-29 05:37:00,
2013-07-28 23:39:00,53.1,50.8,22.61,ESE,120,0.0,21.0,92,0.00,,,0.04,Wunderground v.1.15,2013-07-29 05:39:00,
2013-07-28 23:43:00,52.9,50.6,22.61,ESE,120,0.0,21.0,92,0.00,,,0.04,Wunderground v.1.15,2013-07-29 05:43:00,
2013-07-28 23:45:00,52.8,50.5,22.61,ESE,120,0.0,21.0,92,0.00,,,0.04,Wunderground v.1.15,2013-07-29 05:45:00,
2013-07-28 23:47:00,52.7,50.4,22.61,ESE,120,0.0,21.0,92,0.00,,,0.04,Wunderground v.1.15,2013-07-29 05:47:00,
2013-07-28 23:53:00,52.3,50.0,22.61,ESE,120,0.0,21.0,92,0.00,,,0.04,Wunderground v.1.15,2013-07-29 05:53:00,
2013-07-28 23:55:00,52.2,49.9,22.61,ESE,120,0.0,21.0,92,0.00,,,0.04,Wunderground v.1.15,2013-07-29 05:55:00,